Find OPS 7613 P/L 3

NORAD ID: 4259 Int'l Des: 1969-082 Owner: NRO/NRL Country: US operational
LEOCIRCULAR

リアルタイム位置

3D地球を読み込み中...

OPS 7613 P/L 3について

説明を読み込み中...

次回通過

Passes for default location (London). Set your location on the main map for personalized predictions.

高度履歴

Loading altitude history...

軌道要素

1 04259U 69082D 26119.58111031 -.00000011 00000-0 30866-4 0 9994
2 04259 70.0152 239.2819 0022310 217.9913 153.4991 13.95119006974907
Epoch: Apr 29, 2026 • Age: 6 hours

現在のステータス

高度 926.0 km
速度 7.39 km/s
衛星直下点 -70.05°S, 18.95°W
タイプ other

Most Searched